[ hide orbit diagram ]
For accurate long-term ephemerides, please instead use our Horizons system.This orbit viewer was implemented using two-body methods, and hence should not be used for determining accurate long-term trajectories (over several years or decades) or planetary encounter circumstances.
Orbital Elements at Epoch 2459200.5 (2020-Dec-17.0) TDB
Reference: JPL 28 (heliocentric ecliptic J2000)
Element | Value | Uncertainty (1-sigma) | Units |
e | .1383405653219087 | 3.3771e-08 | |
a | 3.061073578862376 | 1.6295e-08 | au |
q | 2.637602929470596 | 1.0289e-07 | au |
i | 2.43794121718772 | 3.9693e-06 | deg |
node | 180.9486738384086 | 8.8665e-05 | deg |
peri | 44.62196797794917 | 9.0052e-05 | deg |
M | 53.37470768601157 | 1.388e-05 | deg |
tp | 2458910.470556738773 (2020-Mar-01.97055674) | 7.6083e-05 | TDB |
period | 1956.181197061722 5.36 | 1.562e-05 4.277e-08 | d yr |
n | .1840320316649282 | 1.4695e-09 | deg/d |
Q | 3.484544228254155 | 1.8549e-08 | au |
|
| | Orbit Determination Parameters
Additional Information
|
[ show covariance matrix ]
Physical Parameter Table
Parameter |
Symbol |
Value |
Units |
Sigma |
Reference |
Notes |
absolute magnitude |
H |
14.28 |
|
n/a |
E2021B10 |
|
diameter |
diameter |
6.811 |
km |
0.269 |
urn:nasa:pds:neowise_diameters_albedos::2.0[mainbelt] (http://adsabs.harvard.edu/abs/2011ApJ...741...68M) |
|
geometric albedo |
albedo |
0.087 |
|
0.014 |
urn:nasa:pds:neowise_diameters_albedos::2.0[mainbelt] (http://adsabs.harvard.edu/abs/2011ApJ...741...68M) |
|
|
31282 Nicoleticea | Discovered 1998 Mar. 20 by the Lincoln Laboratory Near-Earth Asteroid Research Team at Socorro. |
Nicole Sabina Ticea (b. 1998) was awarded second place in the 2014 Intel International Science and Engineering Fair for her medicine and health sciences project. She attends the York House School, Vancouver, British Columbia, Canada. |
NOTE: some special characters may not display properly (any characters within {} are an attempt to place the proper accent above a character) |
Reference: MPC batch dated 2015-07-02 | Last Updated: 2015-07-06 |
|
[ show close-approach data ]
|